Location: Kermapucano
(48.0667°N, 3.3000°W)
Time: 19:59:37
(UTC+00:00)

Meteor 1-31 Rocket - Pass Details

Date: 29 November 2020
Orbit: 520 x 546 km, 97.6° (Epoch: 27 January)

Event Time Altitude Azimuth Distance (km) Brightness Sun altitude
Rises 05:35:13 0° 8° (N) 2,695 6.3 -20.2°
Reaches altitude 10° 05:37:24 10° 3° (N) 1,794 5.4 -19.8°
Enters shadow 05:40:12 39° 333° (NNW) 804 3.3 -19.3°
